This is the latest recevied weather packets stored in our database for station/object KQ4PPF. If no packets are shown the sender has not sent any weather packets the latest 10 day(s).
| Time | Temp. | Humidity | Pressure | Rain* | Wind** | Luminosity | Snow |
|---|---|---|---|---|---|---|---|
| 1787777195 | 29.44° C | 70% | 1014.5 hPa | 0 mm | - | 71 W/m² | - |
| 1787776894 | 29.44° C | 70% | 1014.4 hPa | 0 mm | - | 72 W/m² | - |
| 1787776593 | 29.44° C | 68% | 1014.7 hPa | 0 mm | - | 73 W/m² | - |
| 1787776292 | 28.89° C | 67% | 1014.4 hPa | 0 mm | - | 74 W/m² | - |
| 1787775990 | 28.89° C | 73% | 1014.4 hPa | 0 mm | - | 75 W/m² | - |
| 1787775686 | 29.44° C | 70% | 1014.5 hPa | 0 mm | - | 75 W/m² | - |
| 1787775384 | 29.44° C | 68% | 1014.7 hPa | 0 mm | - | 73 W/m² | - |
| 1787775079 | 29.44° C | 67% | 1014.4 hPa | 0 mm | - | 76 W/m² | - |
| 1787774778 | 28.89° C | 67% | 1014.4 hPa | 0 mm | - | 79 W/m² | - |
| 1787774474 | 29.44° C | 70% | 1014.4 hPa | 0 mm | - | 66 W/m² | - |
| 1787774173 | 30.56° C | 62% | 1014.6 hPa | 0 mm | - | 62 W/m² | - |
| 1787773871 | 30.56° C | 63% | 1014.8 hPa | 0 mm | - | 70 W/m² | - |
| 1787773570 | 30° C | 62% | 1015.1 hPa | 0 mm | - | 86 W/m² | - |
| 1787773267 | 30° C | 63% | 1014.9 hPa | 0 mm | - | 64 W/m² | - |
| 1787772962 | 30.56° C | 61% | 1015.1 hPa | 0 mm | - | 54 W/m² | - |
| 1787772657 | 30.56° C | 61% | 1015 hPa | 0 mm | - | 89 W/m² | - |
| 1787772355 | 30.56° C | 60% | 1015.2 hPa | 0 mm | - | 91 W/m² | - |
| 1787772054 | 30.56° C | 59% | 1015.1 hPa | 0 mm | - | 100 W/m² | - |
| 1787771748 | 30.56° C | 58% | 1015 hPa | 0 mm | - | 103 W/m² | - |
| 1787771447 | 30.56° C | 61% | 1015.1 hPa | 0 mm | - | 108 W/m² | - |
| 1787771147 | 30.56° C | 61% | 1015.2 hPa | 0 mm | - | 108 W/m² | - |
| 1787770843 | 30° C | 62% | 1015.3 hPa | 0 mm | - | 104 W/m² | - |
| 1787770541 | 30° C | 61% | 1015.3 hPa | 0 mm | - | 97 W/m² | - |
| 1787770240 | 30.56° C | 59% | 1015.4 hPa | 0 mm | - | 221 W/m² | - |
| 1787769939 | 30.56° C | 61% | 1015.5 hPa | 0 mm | - | 153 W/m² | - |
* Rain latest hour (hover to see other rain measurements)
** Current wind speed in m/s (hover to see current wind gust speed)